RH
13 16 18 17 17 17 16 17 18 18 19 22 26 30 31 26 20 18 17 19 25 27 24 21 20 19 20 22 23 25 25 24 24 25 24 24 25 26 28 29 30 31 32 34 35 36 38 40 41 38 35 34 34 33 32 30 29 28 28 29 28 30 32 33 33 32 31 30 29 31 33 36 37 36 39 44 45 45 45 49 58 69 77 80 83 85
16 19 20 17 16 16 17 19 18 16 19 23 30 31 27 22 18 17 19 21 24 26 23 21 22 21 23 25 26 27 28 27 28 29 29 28 30 32 33 35 37 37 38 40 41 42 43 45 46 46 43 41 39 36 33 32 31 30 29 28 26 26 28 30 31 30 29 29 27 26 27 30 34 35 36 39 43 47 48 47 47 53 63 72 79 84
18 18 17 15 17 18 19 21 19 17 20 24 28 29 25 21 19 18 19 21 22 24 23 21 22 22 24 30 30 28 29 30 32 33 34 34 37 40 42 44 46 46 46 46 46 48 49 48 46 47 45 42 39 36 34 34 34 34 31 28 25 25 27 28 29 30 30 29 27 27 26 27 30 32 33 33 33 38 45 50 50 48 52 60 68 76
17 16 15 16 20 21 19 20 21 20 20 23 27 28 25 21 22 22 20 19 22 25 26 26 27 26 29 34 32 30 32 34 36 39 41 43 45 48 48 50 51 52 52 51 51 52 52 50 47 44 42 39 38 38 38 39 39 39 34 28 25 26 26 28 32 37 41 40 37 35 34 32 31 30 31 32 30 30 36 45 52 53 53 55 59 67
17 16 15 20 25 21 17 19 21 22 20 24 29 28 24 23 25 27 24 22 23 25 30 33 32 28 31 38 36 34 37 39 41 45 48 50 52 53 53 55 57 57 56 56 55 54 51 48 46 44 43 42 41 42 42 42 41 38 32 27 26 25 27 35 44 47 49 49 45 41 39 38 37 34 33 35 35 34 35 39 48 54 55 55 56 60
18 18 17 23 25 19 17 19 21 23 23 25 30 26 23 26 27 27 27 28 28 27 30 38 41 36 33 40 43 40 42 44 45 48 50 52 54 56 58 60 60 59 60 59 56 53 51 49 47 47 46 44 43 42 40 40 40 36 31 27 27 28 33 42 50 51 50 51 49 46 44 43 43 41 39 39 40 41 41 40 44 49 52 55 56 57
18 19 19 22 23 19 18 19 20 24 26 26 27 25 25 28 28 28 29 32 35 32 32 40 50 46 34 35 43 42 44 48 49 51 55 57 57 59 61 62 61 60 60 58 55 53 53 52 51 50 47 44 43 42 40 41 42 37 32 30 31 34 35 39 46 51 54 55 56 55 53 52 50 47 43 42 43 45 45 44 44 46 49 53 54 55
21 21 23 24 22 19 20 20 21 24 27 27 26 27 28 28 29 30 30 34 37 34 36 42 46 42 30 32 43 45 48 54 56 59 62 64 63 62 64 65 65 64 63 60 58 56 55 54 52 49 46 41 40 43 45 49 47 40 35 37 39 38 37 43 51 56 59 61 62 61 61 59 55 51 47 45 45 46 47 46 44 45 48 51 53 53
25 25 26 27 24 21 21 21 22 25 27 28 28 29 30 30 31 30 32 36 36 38 45 44 39 40 34 32 44 51 55 61 64 67 70 69 67 65 65 66 66 66 65 63 61 57 54 52 49 46 43 39 39 45 47 48 47 43 43 47 47 45 47 56 61 62 66 68 67 64 63 61 56 52 50 49 49 48 49 50 49 47 47 49 53 56
26 25 25 29 25 22 23 22 23 26 28 29 30 31 31 32 30 29 33 35 35 43 51 42 37 46 43 34 43 57 64 69 71 73 71 67 67 68 67 66 63 60 60 60 58 55 53 50 48 45 42 39 41 46 47 47 49 51 53 56 56 57 64 72 73 73 77 78 74 72 70 67 62 60 58 55 53 52 52 53 51 50 49 48 51 56
27 26 27 29 26 24 23 22 23 26 29 32 31 32 32 30 29 29 31 31 35 42 43 38 38 48 52 44 47 57 63 67 68 67 65 65 67 67 63 60 58 55 54 55 54 53 53 51 47 42 37 38 44 49 52 54 57 60 62 65 68 74 80 85 84 82 83 84 82 80 80 78 74 72 70 65 60 57 57 55 54 54 54 53 51 51
29 29 30 29 27 25 23 22 23 25 30 33 31 33 34 30 28 30 30 32 39 41 36 36 37 44 53 52 51 57 57 56 57 59 61 62 62 59 57 54 55 56 54 54 54 52 49 44 40 38 36 40 48 54 59 62 63 66 71 76 83 88 88 88 87 85 86 86 85 86 88 86 83 81 80 76 71 68 66 63 60 59 57 57 55 53
27 30 31 30 27 25 24 24 25 26 31 32 31 37 41 37 36 38 38 38 41 39 34 35 39 44 48 47 51 55 52 47 51 59 63 61 58 55 54 53 54 55 54 53 50 43 38 37 40 43 41 45 54 61 65 67 69 73 79 85 89 90 88 87 85 85 87 87 86 89 92 91 89 88 86 83 80 78 76 74 70 66 63 61 59 59
27 31 32 31 27 25 26 27 27 29 33 33 35 43 47 47 52 55 52 50 49 42 36 35 42 49 48 46 51 51 49 52 57 62 62 59 57 55 53 53 50 47 42 39 37 35 37 42 47 48 46 52 63 67 69 72 76 81 85 90 89 87 86 84 83 84 87 88 88 89 92 92 92 90 90 90 88 86 84 81 78 74 71 66 61 59
31 34 31 29 27 27 30 30 32 35 37 36 38 44 48 49 59 65 63 64 62 50 41 40 45 52 54 52 52 49 52 61 63 61 60 56 54 52 50 45 40 36 34 33 36 42 46 48 50 53 56 65 71 71 72 75 79 83 87 90 90 87 85 84 84 85 84 86 89 91 92 93 93 93 92 93 94 94 92 89 85 79 75 71 66 63
32 31 29 29 28 29 33 33 36 39 39 39 39 45 50 47 54 63 62 61 61 54 48 46 45 46 48 48 49 52 57 62 61 60 58 53 48 44 42 39 38 40 40 41 45 48 48 47 52 59 65 70 73 73 73 75 80 86 89 90 89 86 85 85 85 83 82 83 86 90 91 90 91 92 92 93 95 97 96 95 91 85 81 77 72 71
36 32 28 31 32 31 34 35 37 40 40 41 44 49 51 48 53 61 57 50 54 59 55 49 49 48 46 50 56 59 60 60 59 58 54 50 46 44 44 44 45 45 45 46 49 50 51 54 59 64 67 69 71 74 75 77 83 88 89 89 88 87 86 85 85 85 85 85 86 90 91 89 88 89 92 95 96 97 96 94 92 89 88 85 81 79
40 38 32 33 35 32 34 38 38 40 42 42 48 52 49 50 56 60 58 56 60 67 59 49 53 55 54 60 64 61 60 59 56 52 49 51 53 53 52 51 48 46 46 49 51 53 57 65 71 71 71 72 73 77 80 82 85 86 86 89 90 90 88 86 87 87 84 83 85 88 90 91 90 89 92 95 96 95 93 91 91 90 91 92 88 85
40 44 37 32 33 34 38 42 40 40 43 44 49 54 54 59 64 60 62 68 72 75 66 52 51 55 58 63 65 62 59 59 56 51 51 54 56 55 52 49 47 45 48 51 52 57 64 73 80 78 76 78 79 82 83 82 83 82 85 90 93 92 89 87 88 86 81 81 82 83 86 89 90 89 90 92 92 92 90 90 93 94 95 96 93 90
37 47 45 33 31 36 38 39 38 40 45 45 50 57 57 60 64 62 64 71 75 77 75 66 57 54 60 66 66 64 60 58 57 53 55 57 56 54 51 48 47 47 49 50 52 59 66 74 80 81 81 83 85 86 83 81 82 83 85 90 93 93 90 88 87 85 84 84 84 84 84 84 84 84 85 87 88 89 88 89 92 96 98 97 94 93
35 44 46 35 33 37 37 37 37 40 46 48 53 61 63 63 65 64 62 63 69 75 80 80 67 56 62 66 63 63 61 57 55 54 58 59 55 51 47 48 51 49 44 45 51 60 67 71 76 81 85 87 88 88 85 82 83 85 85 87 90 91 90 88 86 85 87 87 86 88 89 88 84 80 79 81 83 86 86 87 89 92 96 97 95 95
35 41 45 41 38 36 36 39 40 43 47 49 55 61 65 71 70 68 65 59 61 70 76 83 78 64 64 65 61 63 60 53 54 57 59 60 53 45 42 47 51 45 40 43 53 62 67 68 71 77 83 88 89 87 85 84 85 88 89 88 88 89 87 86 85 85 87 87 86 89 93 94 89 83 81 79 79 81 84 87 88 88 91 96 95 94
39 46 48 45 41 37 40 43 44 48 51 52 59 62 64 72 72 72 74 66 62 66 68 76 78 63 58 62 62 62 56 50 56 61 60 56 47 39 41 45 43 37 38 46 56 64 68 68 70 74 80 86 87 86 85 85 87 91 92 90 89 88 85 83 83 84 86 85 84 88 94 95 92 88 88 86 84 84 86 89 90 88 90 96 96 94
43 49 48 42 36 34 41 46 45 49 53 54 60 64 66 71 72 73 75 73 78 81 75 78 76 58 53 60 59 57 53 51 56 58 52 44 37 36 39 39 35 34 40 50 60 67 70 73 75 77 81 85 87 86 86 87 89 91 92 92 91 89 86 84 83 83 85 85 83 85 89 91 89 89 91 92 92 91 90 91 94 92 92 95 96 94
46 49 46 44 42 39 41 45 46 48 50 52 58 65 69 70 73 75 73 76 88 86 78 86 82 59 55 60 55 54 55 52 52 50 41 34 34 38 37 32 34 41 49 57 66 71 76 81 83 82 82 84 85 86 87 88 90 91 90 91 91 91 88 87 85 84 84 87 87 85 85 85 85 87 90 92 93 94 94 93 94 96 95 93 92 92
50 50 47 49 52 52 51 51 50 50 51 53 56 64 70 71 73 77 77 82 91 83 76 88 85 63 55 57 55 56 57 52 47 42 35 31 35 39 35 32 41 54 62 68 75 81 85 87 86 85 85 84 84 87 88 88 89 89 88 89 90 91 89 87 85 84 84 86 85 81 80 82 83 84 88 92 93 95 96 94 93 94 94 93 91 90
50 48 50 52 52 52 52 51 52 54 56 57 55 58 67 72 73 78 81 83 86 81 72 73 75 66 59 60 61 61 59 52 43 36 35 36 37 36 32 37 52 65 72 78 84 88 89 89 88 87 86 86 86 88 88 87 88 88 87 87 88 89 88 85 84 82 82 81 80 77 77 80 81 83 88 93 94 94 94 92 91 90 90 91 90 88
45 47 52 54 51 51 52 51 54 58 57 55 55 56 62 70 75 80 82 76 73 76 69 59 60 64 61 62 65 63 57 49 39 35 37 39 39 35 36 48 63 72 77 81 85 87 87 87 86 85 86 86 86 86 85 86 87 88 87 86 85 85 86 84 82 80 79 79 78 78 78 80 82 86 90 92 94 93 91 88 87 87 87 87 88 89
45 49 50 51 52 54 54 54 55 56 54 54 56 55 56 64 73 77 77 72 68 73 71 60 58 62 61 62 64 60 52 45 41 40 38 36 34 34 44 59 69 74 79 83 85 87 87 87 85 85 86 86 87 88 88 88 88 87 87 87 86 86 85 84 81 80 82 82 80 80 82 83 84 86 87 86 88 89 88 87 87 86 86 86 85 87
46 49 48 50 56 56 55 56 55 53 54 54 54 56 57 63 69 70 69 69 68 69 68 64 63 62 61 65 65 56 46 41 43 43 37 33 33 38 51 65 71 76 82 85 87 88 89 90 90 90 90 92 95 96 94 92 90 88 87 87 87 87 86 86 84 84 87 89 89 88 89 88 86 82 81 81 83 86 88 89 88 86 86 85 84 84
45 48 47 50 56 56 54 55 55 54 56 54 53 58 62 64 66 67 65 66 67 66 64 65 67 65 62 63 62 55 47 42 42 42 38 36 39 46 56 63 67 73 79 83 88 91 91 92 92 94 96 97 98 98 96 93 91 91 90 88 86 86 86 87 88 88 91 94 96 96 92 88 84 81 80 81 83 87 91 90 88 84 82 82 85 87
47 49 48 50 57 57 54 54 54 52 53 55 58 62 62 62 65 67 67 68 69 70 68 67 70 69 62 56 51 48 47 45 43 45 46 44 44 50 59 64 69 75 80 84 88 91 93 93 94 97 98 97 97 98 97 95 92 90 89 86 84 85 87 89 90 89 89 91 96 98 93 87 86 85 84 84 85 89 92 91 88 85 84 85 87 87
49 52 52 54 59 59 55 56 56 56 58 62 64 64 61 61 63 65 67 67 68 71 74 73 72 67 58 48 43 44 48 49 49 51 54 51 47 48 59 72 79 83 85 87 90 92 92 92 95 100 100 99 99 99 96 95 92 87 84 85 85 85 87 89 89 89 88 87 90 94 93 91 91 90 88 86 88 90 91 91 90 90 90 89 88 88
50 55 56 58 64 65 60 56 57 63 69 69 64 62 63 65 67 65 66 67 65 66 69 70 68 62 53 45 42 44 48 51 52 52 53 55 52 47 54 73 86 89 88 90 91 92 93 95 97 100 102 101 100 97 94 94 95 90 87 90 90 88 89 90 89 90 89 87 87 91 93 94 95 93 90 90 92 92 92 94 95 95 94 93 92 92
52 54 56 59 65 68 63 62 67 71 71 67 63 62 64 67 68 65 63 64 66 66 66 68 66 60 52 48 46 45 46 46 49 50 50 54 55 50 54 72 86 90 89 90 88 87 90 97 99 98 99 100 97 94 94 96 96 93 92 95 95 91 91 93 92 92 90 88 89 91 93 96 98 96 94 95 96 96 96 98 99 99 99 98 98 96
52 54 57 60 64 65 64 69 76 71 63 64 67 67 66 68 69 69 67 65 67 71 73 72 68 58 51 48 47 45 44 43 44 45 47 51 54 52 56 70 83 89 91 93 93 90 88 94 99 98 97 99 96 93 95 99 97 95 96 98 97 95 95 95 94 94 92 90 91 93 94 98 101 99 96 97 98 98 99 100 102 102 101 99 99 97
52 55 59 61 63 66 67 69 70 66 64 68 71 69 69 69 70 76 77 71 69 74 75 72 64 54 48 47 47 46 45 44 44 42 42 46 50 51 55 67 80 86 87 89 91 90 86 89 97 100 97 99 98 94 96 99 97 96 98 98 97 96 96 96 94 93 92 92 93 96 97 100 102 100 97 97 99 100 100 101 101 102 101 99 98 97
50 53 59 66 66 67 71 73 72 72 71 70 70 69 69 70 68 71 75 73 72 74 73 68 61 53 48 48 49 49 48 50 48 43 41 43 47 49 51 61 75 82 86 86 83 81 81 85 94 100 100 99 99 95 95 97 95 94 96 97 97 97 96 96 95 94 93 94 97 99 100 102 101 98 97 98 100 101 100 100 100 100 98 94 90 87
53 54 60 68 71 70 74 78 81 80 75 71 71 68 67 69 69 69 73 74 72 71 70 67 62 57 53 51 52 54 59 61 54 46 44 45 47 50 50 55 66 75 82 84 78 75 78 83 91 98 100 99 99 97 95 95 94 93 94 96 97 96 96 97 97 97 97 98 99 101 102 102 98 96 98 100 101 100 100 100 97 92 86 79 74 71
59 62 64 69 73 72 73 77 80 78 74 71 70 67 65 65 67 74 81 78 71 70 70 66 61 57 55 53 54 58 64 66 59 51 50 50 49 51 52 53 59 69 75 75 72 73 78 83 91 98 99 99 99 97 95 95 94 92 93 97 97 96 96 97 98 99 99 99 100 101 102 99 97 98 100 101 100 100 97 91 85 78 72 69 67 65
60 64 66 68 73 75 76 77 76 74 73 72 70 68 67 65 68 79 85 81 75 73 70 65 60 57 54 54 56 58 59 59 57 53 52 52 51 52 53 53 58 69 76 72 70 74 78 82 92 100 100 99 99 98 97 97 95 93 94 97 98 98 99 99 99 100 100 100 101 102 101 98 97 100 102 101 98 93 84 78 74 71 69 67 66 68
64 67 67 68 73 76 75 76 77 74 71 70 69 67 69 74 79 82 80 77 77 75 70 65 60 56 54 54 54 55 53 52 52 52 51 52 52 53 54 52 54 64 71 66 65 73 78 82 93 100 99 99 100 100 99 99 97 97 97 98 99 100 100 100 100 100 100 101 102 102 100 99 100 102 102 96 87 79 75 74 73 71 69 69 72 79
66 68 70 71 75 77 74 79 87 82 72 69 71 71 73 79 82 80 76 75 75 72 69 65 59 56 57 56 53 52 52 50 50 52 52 53 53 53 55 53 53 61 67 62 62 71 76 82 93 100 99 99 100 100 100 99 99 100 100 100 101 101 100 100 101 101 101 102 102 101 100 101 102 99 92 82 75 74 77 78 75 74 77 82 87 90
64 67 70 72 77 81 80 81 83 78 70 70 75 76 75 74 75 78 80 78 73 69 67 64 60 57 57 57 56 54 53 52 52 53 53 53 53 53 54 54 55 60 62 58 60 69 75 82 94 100 100 100 100 100 100 99 99 100 101 101 101 100 101 101 101 101 102 102 101 100 101 101 96 87 78 74 76 78 80 79 79 82 90 95 96 96
64 63 65 68 72 77 78 75 72 71 72 74 74 73 71 72 74 77 78 76 72 69 66 63 60 56 54 56 57 55 53 53 53 54 53 55 55 54 55 56 54 55 57 56 59 68 75 85 96 100 100 100 100 100 100 99 100 101 101 101 101 101 102 102 101 102 103 101 100 101 100 94 83 76 75 79 80 82 85 85 85 88 93 97 97 98
60 59 60 64 65 65 66 67 67 69 70 70 69 69 70 71 73 74 73 71 68 66 63 61 57 54 53 54 55 54 53 53 54 54 54 55 56 56 57 55 48 47 52 55 58 67 76 87 97 101 99 100 101 100 100 100 100 101 101 102 102 101 101 101 101 102 102 101 101 100 94 82 74 75 82 84 85 88 91 88 88 92 96 97 97 99
58 58 58 60 63 64 64 65 66 67 68 68 67 67 68 69 70 70 69 65 60 58 58 56 54 53 52 52 52 53 53 52 54 56 55 56 57 58 57 50 40 41 50 54 57 67 78 88 98 101 99 100 101 100 100 100 100 101 102 102 102 101 102 102 102 101 101 101 100 95 84 74 74 81 86 88 92 95 93 88 89 94 97 97 98 99
60 59 59 59 63 65 66 66 65 64 66 67 68 68 68 68 67 65 64 59 54 53 51 50 51 52 51 51 51 53 53 53 55 56 56 57 58 56 51 42 35 40 50 54 58 68 80 91 99 101 100 100 100 100 100 100 100 101 101 101 101 101 101 102 102 101 101 101 97 87 76 73 79 85 88 90 94 95 92 90 92 92 94 98 101 99
60 60 61 62 64 66 68 69 67 64 64 66 68 68 69 69 66 63 60 56 53 52 51 51 52 51 51 52 52 53 54 55 56 56 57 59 57 50 42 36 34 39 50 55 61 71 84 95 101 101 100 101 100 100 100 100 100 101 100 100 101 100 101 102 102 101 101 98 90 79 74 78 84 86 88 91 93 92 90 90 91 91 95 100 99 93
60 61 61 65 70 74 75 75 72 70 69 68 69 69 68 68 65 61 56 53 52 53 53 53 51 49 50 51 53 54 56 56 56 56 56 54 49 41 37 35 34 40 50 57 63 74 88 98 101 101 101 101 100 100 100 100 100 100 100 100 100 100 101 102 101 101 100 93 82 75 76 82 85 86 88 90 91 93 93 91 91 95 98 97 93 89
61 62 64 68 74 77 77 75 72 71 71 70 69 69 68 66 62 58 55 55 55 55 54 53 51 50 51 52 53 56 58 57 54 52 50 46 39 36 36 35 34 40 51 59 67 80 93 100 101 101 101 101 100 100 100 100 100 100 100 100 100 100 102 102 101 101 98 87 76 76 80 82 83 85 86 86 89 95 96 92 92 97 97 94 90 89